Location: Duac?
(36.9744°N, 30.6500°E)
Time: 06:43:57
(UTC+00:00)

Cosmos 2227 Rocket - Pass Details

Date: 05 August 2024
Orbit: 839 x 843 km, 71.0° (Epoch: 10 September)

Event Time Altitude Azimuth Distance (km) Brightness Sun altitude
Rises 19:47:16 0° 355° (N) 3,399 6.2 -27.5°
Reaches altitude 10° 19:50:55 10° 19° (NNE) 2,461 5.0 -27.9°
Maximum altitude 19:54:00 15° 52° (NE) 2,138 4.3 -28.3°
Enters shadow 19:54:23 15° 57° (ENE) 2,143 4.3 -28.4°
